CW6344 Weather Reports


time (UTC)temp
F
wind
direction
speed
knots
gust
knots
rain 1hr
in
rain 24hr
in
rain mn
in
humidity
%
barometer
mb
20260505051458 64 242 1.7 2.6 0.00 0.00 0.00 62 1011.7
20260505050458 63 266 0.0 1.7 0.00 0.00 0.00 62 1011.6
20260505041458 64 331 0.0 0.9 0.00 0.00 0.00 61 1011.6
20260505040458 64 343 0.0 0.0 0.00 0.00 0.00 59 1011.6
20260505035458 64 344 0.0 0.0 0.00 0.00 0.00 60 1011.5
20260505034458 64 277 0.0 0.0 0.00 0.00 0.00 60 1011.5
20260505032458 64 283 0.0 0.0 0.00 0.00 0.00 60 1011.5
20260505031458 64 283 0.0 0.0 0.00 0.00 0.00 60 1011.5
20260505030458 64 283 0.0 0.0 0.00 0.00 0.00 61 1011.5
20260505025458 64 283 0.0 0.0 0.00 0.00 0.00 59 1011.5
20260505024528 64 283 0.0 0.0 0.00 0.00 0.00 60 1011.5
20260505023458 64 283 0.0 0.0 0.00 0.00 0.00 60 1011.5
20260505022458 64 283 0.0 0.0 0.00 0.00 0.00 62 1011.5
20260505021458 64 283 0.0 0.0 0.00 0.00 0.00 61 1011.3
20260505020458 64 283 0.0 0.0 0.00 0.00 0.00 62 1011.4
20260505015458 64 283 0.0 0.0 0.00 0.00 0.00 61 1011.4
20260505014458 64 283 0.0 0.0 0.00 0.00 0.00 62 1011.3
20260505013458 64 283 0.0 0.0 0.00 0.00 0.00 60 1011.3
20260505012528 65 283 0.0 0.0 0.00 0.00 0.00 60 1011.3
20260505011458 65 283 0.0 0.0 0.00 0.00 0.00 58 1011.2
20260505010458 66 283 0.0 0.0 0.00 0.00 0.00 56 1011.2
20260505005458 67 283 0.0 0.9 0.00 0.00 0.00 54 1011.0
20260505004458 66 285 0.0 0.0 0.00 0.00 0.00 54 1010.9
20260505003458 66 285 0.0 0.0 0.00 0.00 0.00 52 1011.0
20260505002558 67 285 0.0 0.0 0.00 0.00 0.00 50 1011.0
20260505001458 68 285 0.0 0.0 0.00 0.00 0.00 48 1011.0
20260505000528 68 285 0.0 0.0 0.00 0.00 0.00 47 1010.9
20260504235458 70 285 0.0 0.0 0.00 0.00 0.00 44 1010.7
20260504234459 71 285 0.0 0.0 0.00 0.00 0.00 43 1010.7
20260504232528 73 285 0.0 0.0 0.00 0.00 0.00 40 1010.7
20260504231458 73 76 0.0 0.0 0.00 0.00 0.00 38 1010.6
20260504230529 74 275 0.9 1.7 0.00 0.00 0.00 37 1010.6
20260504225459 74 267 0.0 1.7 0.00 0.00 0.00 37 1010.6
20260504224458 75 218 0.9 2.6 0.00 0.00 0.00 35 1010.6
20260504223458 75 167 0.9 2.6 0.00 0.00 0.00 35 1010.7
20260504222459 75 267 1.7 1.7 0.00 0.00 0.00 35 1010.8
20260504221458 75 197 0.0 2.6 0.00 0.00 0.00 37 1010.8
20260504220458 75 344 0.9 0.9 0.00 0.00 0.00 38 1010.8
20260504215458 76 232 0.0 3.5 0.00 0.00 0.00 33 1010.9
20260504214458 76 211 0.9 2.6 0.00 0.00 0.00 35 1010.9
20260504213459 76 213 0.0 3.5 0.00 0.00 0.00 38 1010.8
20260504212459 76 296 0.0 2.6 0.00 0.00 0.00 34 1010.9
20260504211458 76 180 0.9 1.7 0.00 0.00 0.00 35 1010.9
20260504210529 76 292 1.7 2.6 0.00 0.00 0.00 34 1010.9
20260504205458 76 16 0.9 0.9 0.00 0.00 0.00 36 1010.7
20260504204529 77 215 0.0 3.5 0.00 0.00 0.00 32 1010.8
20260504203459 77 275 0.9 1.7 0.00 0.00 0.00 37 1010.7
20260504202459 77 171 0.0 1.7 0.00 0.00 0.00 33 1010.9
20260504200459 78 289 0.0 2.6 0.00 0.00 0.00 37 1011.1
20260504195458 77 12 1.7 1.7 0.00 0.00 0.00 37 1011.1
20260504194458 77 86 0.9 2.6 0.00 0.00 0.00 31 1011.2
20260504193459 76 340 0.9 2.6 0.00 0.00 0.00 37 1011.4
20260504192459 76 101 0.9 3.5 0.00 0.00 0.00 33 1011.7
20260504191459 76 231 0.0 4.3 0.00 0.00 0.00 33 1011.7
20260504190459 77 160 0.9 3.5 0.00 0.00 0.00 31 1011.8
20260504185458 76 178 2.6 2.6 0.00 0.00 0.00 38 1011.9
20260504184459 76 250 0.9 7.0 0.00 0.00 0.00 33 1012.2
20260504183459 76 208 2.6 3.5 0.00 0.00 0.00 35 1012.3
20260504182459 75 245 1.7 3.5 0.00 0.00 0.00 32 1012.4
20260504181459 76 136 0.0 2.6 0.00 0.00 0.00 33 1012.5
20260504180459 75 317 0.9 4.3 0.00 0.00 0.00 32 1012.6
20260504175459 75 340 0.9 2.6 0.00 0.00 0.00 45 1012.6
20260504174459 75 244 3.5 4.3 0.00 0.00 0.00 40 1012.8
20260504173459 74 236 1.7 2.6 0.00 0.00 0.00 41 1012.9
20260504172559 74 175 1.7 4.3 0.00 0.00 0.00 35 1013.0
20260504171459 72 152 0.9 3.5 0.00 0.00 0.00 35 1013.2
20260504170459 73 198 0.0 5.2 0.00 0.00 0.00 39 1013.3
20260504150459 67 207 2.6 2.6 0.00 0.00 0.00 40 1014.4
20260504140459 63 233 0.0 1.7 0.00 0.00 0.00 52 1014.4
20260504130459 59 254 0.0 1.7 0.00 0.00 0.00 59 1014.9
20260504110459 55 222 0.0 0.9 0.00 0.00 0.00 65 1015.6
20260504100459 53 219 0.0 0.9 0.00 0.00 0.00 70 1015.5
20260504081459 53 219 0.0 0.0 0.00 0.00 0.00 71 1015.7
20260504080459 53 219 0.0 0.0 0.00 0.00 0.00 72 1015.7